Regional Weather Roundup
Issued by NWS Upton, NY

Current Version | Previous Version | Text Only | Print | Product List | Glossary On
Versions: 1 2 3 4 5 6 7 8 9 10 11 12 13 14 15 16 17 18 19 20 21 22 23 24 25 26 27 28 29 30 31 32 33 34 35 36 37 38 39 40 41 42 43 44 45 46 47 48 49 50
000 ASUS41 KOKX 270508 RWROKX REGIONAL WEATHER ROUNDUP NATIONAL WEATHER SERVICE NEW YORK NY 100 AM EDT WED MAY 27 2015 NOTE: "FAIR" INDICATES FEW OR NO CLOUDS BELOW 12,000 FEET WITH NO SIGNIFICANT WEATHER AND/OR OBSTRUCTIONS TO VISIBILITY. NYZ071-072-176-178-NJZ106-104-270600- NEW YORK CITY METRO AREA CITY SKY/WX TMP DP RH WIND PRES REMARKS CENTRAL PARK PTCLDY 73 61 65 VRB6G17 30.19S LAGUARDIA APRT MOCLDY 74 61 63 SW12G21 30.16S KENNEDY INTL CLOUDY 63 57 81 S8 30.18S NEWARK/LIBERTY CLOUDY 72 62 71 S12 30.16S BRNX BOT. GARD N/A N/A N/A N/A S9 30.17R TETERBORO PTCLDY 74 62 66 S12 30.14F $$ NYZ177-179-078>081-270600- LONG ISLAND NEW YORK CITY SKY/WX TMP DP RH WIND PRES REMARKS FARMINGDALE MOCLDY 65 60 84 SW12 30.19S ISLIP PTCLDY 65 60 84 SW13G25 30.18S SHIRLEY PTCLDY 65 59 81 SW13G20 30.21S WESTHAMPTON CLEAR 62 59 90 SW13G18 30.22S MONTAUK POINT N/A 64 59 83 SW10G21 30.22F $$ NYZ052-065-067-270600- HUDSON VALLEY CITY SKY/WX TMP DP RH WIND PRES REMARKS WHITE PLAINS PTCLDY 65 60 84 CALM 30.16S NEWBURGH PTCLDY 73 66 78 VRB3 30.15S MONTGOMERY FOG 65 65 100 CALM 30.13S VSB 1/4 POUGHKEEPSIE CLEAR 71 63 75 SE3 30.13S ALBANY CLOUDY 75 64 68 S9 30.10S $$ NJZ001-105-106-008-010-013-015-019>022-104-270600- NEW JERSEY CITY SKY/WX TMP DP RH WIND PRES REMARKS NEWARK/LIBERTY CLOUDY 72 62 71 S12 30.16S TETERBORO PTCLDY 74 62 66 S12 30.14F CALDWELL PTCLDY 73 62 68 SW5 30.16S MORRISTOWN MOCLDY 73 63 68 CALM 30.16S SOMERVILLE CLEAR 70 63 78 S3 30.14F SUSSEX CLEAR 70 61 73 SW3 30.16F ANDOVER N/A 72 64 76 S3 30.16S TRENTON CLEAR 71 63 75 S10 30.17S MILLVILLE CLEAR 69 65 86 VRB5 30.19F ATLANTIC CITY PTCLDY 68 61 78 S15 30.19F WRIGHTSTOWN PTCLDY 68 64 86 SW9 30.16S TOMS RIVER PTCLDY N/A N/A N/A S8 30.19S BELMAR MOCLDY 70 57 64 SW9 30.19S $$ PAZ047>061-062-071-270600- EASTERN PENNSYLVANIA CITY SKY/WX TMP DP RH WIND PRES REMARKS PHILADELPHIA PTCLDY 73 64 73 S8 30.18S ALLENTOWN CLEAR 75 64 68 SW12 30.15F SCRANTON CLEAR 73 64 73 SW5 30.13F $$ CTZ002-004>006-009-010-012-RIZ004-006-007-MAZ004-011-015-270600- SOUTHERN NEW ENGLAND IN CT CITY SKY/WX TMP DP RH WIND PRES REMARKS BRADLEY INTL PTCLDY 67 59 75 S9 30.15S HARTFORD PTCLDY 66 59 78 S7 30.17S DANBURY CLEAR 69 59 70 S5 30.18S WTRBRY/OXFORD CLEAR 64 57 77 CALM 30.19S BRIDGEPORT PTCLDY 66 59 78 SW8 30.17F MERIDEN CLEAR 66 59 78 S5 30.17F NEW HAVEN CLEAR 65 60 84 S6 30.18F CHESTER FAIR 64 61 88 SW7 30.20F GROTON CLEAR 60 57 89 CALM 30.20S WILLIMANTIC PTCLDY 66 59 78 S8 30.19S IN RI CITY SKY/WX TMP DP RH WIND PRES REMARKS PROVIDENCE CLEAR 65 59 81 S7 30.20S BLOCK ISLAND CLEAR 57 54 88 SW16 30.22S WESTERLY CLEAR 63 59 87 SW8 30.22S IN MA CITY SKY/WX TMP DP RH WIND PRES REMARKS BOSTON PTCLDY 69 60 73 SW18 30.15S WORCESTER MOCLDY 67 59 75 SW13 30.18S WESTFIELD PTCLDY 68 60 75 S7 30.15S PROVINCETOWN MOCLDY 59 54 82 S15G22 30.20R NANTUCKET MOCLDY 60 58 92 SW12 30.25R $$ ANZ330-335-338-340-345-350-353-355-270600- COASTAL MARINE OBSERVATIONS STATION/POSITION TIME SKY/WX TEMP WIND PRES VSBY WAVE AIR SEA DIR/SP/G HT/PER (UTC) (F) (DEG/KT/KT) (MB) (MI) (FT/S) NY HARB ENTRANCE 0450 61 56 200/ 17/ 19 1021.3 4/ 5 4S FIRE IS 0403 55 N/A 5/ 6 20S FIRE ISLAND 0450 60 56 210/ 14/ 16 1022.4 4/ 5 GREAT SOUTH BAY 0400 63 66 210/ 19/ 23 N/A 23SW MTP 0450 58 53 220/ 14/ 16 1022.9 4/ 6 HUDSON CANYON NOT AVBL KINGS POINT 0400 68 60 190/ 11/ 13 1020.8 CENTRAL LI SOUND 0400 63 55 210/ 16/ 17 N/A EASTERN LI SOUND 0400 59 240/ 6/ 10 N/A ROBBINS REEF 0400 73 220/ 14/ 18 1020.3 $$ >>>>>>>>>>>>>>>>>>>>>>>>>>>> KEY <<<<<<<<<<<<<<<<<<<<<<<<<<< > < > SKY/WX - SKY CONDITION/PRESENT WEATHER < > TMP - TEMPERATURE IN FAHRENHEIT < > DP - DEWPOINT IN FAHRENHEIT < > RH - RELATIVE HUMIDITY IN PERCENT < > WIND - DIRECTION AND SPEED IN MPH < > PRES - MEAN SEA LEVEL PRESSURE IN INCHES OF HG < > WCI - WIND CHILL INDEX < > VSB - VISIBILITY IN MILES < > HX - HEAT INDEX < > TC - TEMPERATURE IN CELSIUS < > VRB - VARIABLE WIND DIRECTION < > < >>>>>>>>>>>>>>>>>>>>>>>>>>>> KEY <<<<<<<<<<<<<<<<<<<<<<<<<<<

USA.gov is the U.S. government's official web portal to all federal, state and local government web resources and services.